[[{"header":{"parameterUnit":"m.s-1","parameterCategory":1,"la1":30.2991,"la2":30.254,"lo1":-89.0895,"lo2":-89.0444,"dy":0.0017,"dx":0.0017,"nx":28,"ny":28,"refTime":"2024-08-16T09:00:00:Z","depth":0,"parameterNumber":2,"parameterNumberName":"U-component_of_WINDS"},"data":[0,0,0,0,0,0,0,0,0,0,0,0,0,0,0,0,0,0,0,0,0,0,0,0,0,0,0,0,0,0,0,0,0,0,0,0,0,0,0,0,0,0,0,0,0,0,0,0,0,0,0,0,0,0,0,0,0,0,-1.0483,-1.0484,0,-1.0568,-1.0569,-1.057,-1.0579,-1.0578,-1.0577,-1.0576,-1.0667,-1.0671,-1.0674,0,0,0,0,0,0,0,0,0,0,0,0,0,-1.0329,-1.0332,-1.0483,-1.0484,-1.0485,-1.0568,-1.0569,-1.057,-1.0579,-1.0578,-1.0577,-1.0576,-1.0666,-1.067,-1.0674,0,0,0,0,0,0,0,0,0,0,0,0,0,-1.0404,-1.0333,-1.0482,-1.0499,-1.0501,-1.0568,-1.0569,-1.0571,-1.0579,-1.0578,-1.0576,-1.0575,-1.0665,-1.067,-1.0675,-1.0732,0,0,-1.069,-1.0692,0,0,0,0,0,0,0,0,-1.0399,-1.0409,-1.0495,-1.0498,-1.0501,-1.0561,-1.0549,-1.0625,-1.0579,-1.055,-1.0576,-1.0574,-1.0633,-1.0641,-1.066,-1.0736,-1.074,-1.069,-1.0693,-1.0695,-1.0696,0,0,0,0,0,0,0,-1.0394,-1.0406,-1.0517,-1.0497,-1.05,-1.0503,-1.0512,-1.0563,-1.0598,-1.0552,-1.0553,-1.0563,-1.0635,-1.0655,-1.0662,-1.0741,-1.069,-1.0694,-1.0697,-1.0699,-1.0869,-1.087,0,0,0,0,0,0,-1.0386,-1.0401,-1.0514,-1.0519,-1.0446,-1.0507,-1.0517,-1.0543,-1.0598,-1.0604,-1.0564,-1.0563,-1.0647,-1.0656,-1.0665,-1.0736,-1.0695,-1.07,-1.0702,-1.0867,-1.0869,-1.0871,0,0,0,0,0,0,-1.0382,-1.0396,-1.051,-1.046,-1.0475,-1.0511,-1.054,-1.0546,-1.0566,-1.0606,-1.0613,-1.0578,-1.0647,-1.0658,-1.0715,-1.0739,-1.0702,-1.0706,-1.0865,-1.0868,-1.087,-1.0877,0,0,0,0,0,0,-1.0378,-1.0394,-1.0416,-1.0461,-1.0478,-1.0558,-1.0542,-1.0548,-1.0574,-1.0574,-1.0622,-1.0628,-1.0647,-1.0707,-1.072,-1.0745,-1.071,-1.0863,-1.0866,-1.0869,-1.0875,-1.0879,-1.0883,0,0,0,0,0,-1.0372,-1.0415,-1.0417,-1.043,-1.0505,-1.0559,-1.0569,-1.0588,-1.0576,-1.0598,-1.0624,-1.0627,-1.0734,-1.0713,-1.0727,-1.0754,-1.0862,-1.0865,-1.0869,-1.0873,-1.0878,-1.0883,0,0,0,0,0,0,-1.0373,-1.0421,-1.0424,-1.0482,-1.0516,-1.056,-1.0589,-1.0593,-1.0632,-1.063,-1.0654,-1.0664,-1.072,-1.0743,-1.0718,-1.0812,-1.0797,-1.0803,-1.0795,-1.0801,-1.0805,-1.0799,-1.0714,0,0,0,0,0,-1.038,-1.0419,-1.0459,-1.0507,-1.0524,-1.0553,-1.0577,-1.0589,-1.0626,-1.0641,-1.067,-1.0707,-1.0749,-1.0776,-1.0817,-1.0878,-1.0889,-1.0904,-1.0908,-1.0911,-1.0917,-1.0951,-1.0958,-1.0882,-1.0882,-1.0882,0,0,-1.0395,-1.0426,-1.0449,-1.0508,-1.0535,-1.0576,-1.0565,-1.0609,-1.0639,-1.0648,-1.0702,-1.0725,-1.0768,-1.0826,-1.0854,-1.0847,-1.094,-1.0916,-1.0918,-1.0922,-1.0955,-1.0962,-1.0968,-1.0884,-1.0884,-1.0884,0,0,-1.0443,-1.047,-1.0512,-1.054,-1.0582,-1.0601,-1.0611,-1.0655,-1.067,-1.0725,-1.0732,-1.0769,-1.0841,-1.0871,-1.0895,-1.0953,-1.0957,-1.0966,-1.0988,-1.1021,-1.1027,-1.1033,-1.1054,-1.1061,-1.0971,-1.0971,-1.0971,0,-1.0456,-1.0516,-1.0534,-1.0577,-1.0603,-1.0611,-1.0654,-1.0681,-1.0734,-1.0752,-1.0744,-1.0834,-1.0863,-1.0929,-1.0943,-1.0962,-1.0975,-1.0961,-1.1025,-1.103,-1.1036,-1.1056,-1.1064,-1.0972,-1.0972,-1.0972,-1.0972,0,-1.0531,-1.0572,-1.0602,-1.0652,-1.0681,-1.0724,-1.0749,-1.0777,-1.0786,-1.0806,-1.0862,-1.0897,-1.0945,-1.0962,-1.0971,-1.1029,-1.1024,-1.102,-1.1005,-1.1043,-1.1063,-1.1071,-1.0973,-1.0973,-1.0973,-1.0973,0,0,-1.0582,-1.0641,-1.0651,-1.0674,-1.072,-1.0753,-1.0797,-1.0842,-1.0865,-1.0902,-1.094,-1.1,-1.0996,-1.1024,-1.1037,-1.1066,-1.111,-1.1059,-1.106,-1.1067,-1.1176,-1.1179,-1.1188,-1.1113,-1.1114,-1.1116,-1.1173,0,-1.0635,-1.0712,-1.0729,-1.0795,-1.0834,-1.0842,-1.088,-1.0913,-1.0933,-1.097,-1.0993,-1.1035,-1.1027,-1.1044,-1.1073,-1.1098,-1.1132,-1.1095,-1.1149,-1.1151,-1.1138,-1.1198,-1.1201,-1.1253,-1.118,-1.1182,-1.1183,0,-1.0707,-1.0744,-1.0814,-1.0854,-1.0871,-1.0905,-1.0948,-1.0983,-1.1021,-1.1033,-1.1064,-1.1074,-1.1121,-1.1103,-1.1168,-1.1142,-1.1165,-1.1181,-1.1184,-1.119,-1.1169,-1.1206,-1.127,-1.1278,-1.1195,-1.1194,-1.1193,0,-1.0738,-1.0805,-1.0855,-1.0874,-1.0923,-1.0947,-1.0968,-1.1005,-1.1031,-1.1069,-1.1086,-1.113,-1.1154,-1.1187,-1.1209,-1.1194,-1.1273,-1.1257,-1.1285,-1.1285,-1.1302,-1.1301,-1.1371,-1.1316,-1.1316,-1.1316,-1.1316,0,-1.0795,-1.0838,-1.0869,-1.09,-1.0948,-1.0968,-1.1015,-1.1037,-1.1069,-1.1105,-1.1116,-1.1149,-1.1176,-1.1214,-1.1231,-1.1283,-1.1294,-1.1306,-1.131,-1.1305,-1.1304,-1.1321,-1.1318,-1.1318,-1.1318,-1.1317,-1.1317,0,-1.0838,-1.0861,-1.0916,-1.0957,-1.0968,-1.1002,-1.1038,-1.1069,-1.1089,-1.1134,-1.1146,-1.1178,-1.1223,-1.1248,-1.1305,-1.1317,-1.1374,-1.1377,-1.1361,-1.1363,-1.139,-1.1387,-1.1475,-1.1488,-1.1424,-1.1424,-1.1425,0,-1.0873,-1.0906,-1.095,-1.0974,-1.0996,-1.1035,-1.1061,-1.1082,-1.111,-1.1155,-1.118,-1.1226,-1.1263,-1.1335,-1.1364,-1.1407,-1.1411,-1.1439,-1.1418,-1.1412,-1.1412,-1.141,-1.1413,-1.1443,-1.1443,-1.1444,-1.1444,0,-1.0934,-1.0943,-1.098,-1.1021,-1.1052,-1.1086,-1.1119,-1.1139,-1.1165,-1.1195,-1.1241,-1.127,-1.1327,-1.1372,-1.1418,-1.1441,-1.1448,-1.145,-1.1459,-1.1455,-1.1444,-1.145,-1.1371,-1.1448,-1.1448,-1.1447,-1.1447,-1.1447,-1.0974,-1.1003,-1.1039,-1.108,-1.1107,-1.1137,-1.1168,-1.1192,-1.1229,-1.1277,-1.1287,-1.1335,-1.1372,-1.1434,-1.1459,-1.1497,-1.1492,-1.1505,-1.1509,-1.1512,-1.1513,-1.1438,-1.1506,-1.1506,-1.1506,-1.1506,-1.1506,0,-1.1035,-1.1058,-1.1095,-1.1141,-1.1173,-1.1174,-1.1212,-1.1239,-1.128,-1.1314,-1.135,-1.1402,-1.1446,-1.1478,-1.1523,-1.1548,-1.1552,-1.1559,-1.1557,-1.1563,-1.1515,-1.1502,-1.1555,-1.1555,-1.1555,-1.1555,-1.1555,-1.1555,-1.107,-1.112,-1.1133,-1.1197,-1.122,-1.1266,-1.1287,-1.1316,-1.1342,-1.14,-1.1435,-1.1455,-1.1489,-1.1536,-1.1576,-1.1585,-1.1601,-1.1608,-1.1617,-1.1571,-1.1566,-1.1561,-1.155,-1.1611,-1.1611,-1.1662,-1.1662,-1.1663]},{"header":{"parameterUnit":"m.s-1","parameterCategory":1,"la1":30.2991,"la2":30.254,"lo1":-89.0895,"lo2":-89.0444,"dy":0.0017,"dx":0.0017,"nx":28,"ny":28,"refTime":"2024-08-16T09:00:00:Z","depth":0,"parameterNumber":3,"parameterNumberName":"V-component_of_WINDS"},"data":[0,0,0,0,0,0,0,0,0,0,0,0,0,0,0,0,0,0,0,0,0,0,0,0,0,0,0,0,0,0,0,0,0,0,0,0,0,0,0,0,0,0,0,0,0,0,0,0,0,0,0,0,0,0,0,0,0,0,-0.6159,-0.6159,0,-0.618,-0.618,-0.618,-0.6137,-0.6136,-0.6135,-0.6133,-0.6157,-0.6159,-0.6161,0,0,0,0,0,0,0,0,0,0,0,0,0,-0.6085,-0.6087,-0.6159,-0.6159,-0.616,-0.618,-0.618,-0.618,-0.6138,-0.6136,-0.6134,-0.6133,-0.6156,-0.6159,-0.6161,0,0,0,0,0,0,0,0,0,0,0,0,0,-0.6113,-0.6087,-0.6159,-0.6141,-0.6139,-0.618,-0.618,-0.618,-0.6138,-0.6136,-0.6134,-0.6132,-0.6156,-0.6158,-0.6161,-0.6221,0,0,-0.617,-0.6171,0,0,0,0,0,0,0,0,-0.6111,-0.6116,-0.6143,-0.6142,-0.614,-0.6154,-0.6163,-0.6194,-0.6139,-0.6139,-0.6133,-0.6131,-0.6158,-0.616,-0.6169,-0.6222,-0.6223,-0.617,-0.6172,-0.6173,-0.6174,0,0,0,0,0,0,0,-0.611,-0.6115,-0.6167,-0.6144,-0.6142,-0.6132,-0.6134,-0.6168,-0.616,-0.6138,-0.6135,-0.6138,-0.6157,-0.6166,-0.6169,-0.6224,-0.617,-0.6173,-0.6175,-0.6176,-0.6329,-0.6331,0,0,0,0,0,0,-0.611,-0.6113,-0.6167,-0.6168,-0.612,-0.6135,-0.6137,-0.6152,-0.6159,-0.6158,-0.614,-0.6136,-0.6162,-0.6166,-0.617,-0.6242,-0.6173,-0.6176,-0.6178,-0.6327,-0.633,-0.6332,0,0,0,0,0,0,-0.6108,-0.6115,-0.6166,-0.614,-0.6145,-0.6139,-0.6156,-0.6153,-0.6163,-0.616,-0.6159,-0.6151,-0.6161,-0.6166,-0.6209,-0.6242,-0.6177,-0.618,-0.6324,-0.6328,-0.6331,-0.6386,0,0,0,0,0,0,-0.6106,-0.6114,-0.6136,-0.6141,-0.6147,-0.6204,-0.6158,-0.6155,-0.6168,-0.6163,-0.6171,-0.617,-0.616,-0.6205,-0.6212,-0.6245,-0.6182,-0.6321,-0.6326,-0.633,-0.6381,-0.6391,-0.6399,0,0,0,0,0,-0.6104,-0.6151,-0.6138,-0.6144,-0.6174,-0.6206,-0.621,-0.6196,-0.617,-0.6193,-0.6192,-0.617,-0.6237,-0.621,-0.6217,-0.6252,-0.6319,-0.6325,-0.633,-0.6377,-0.6389,-0.6399,0,0,0,0,0,0,-0.6152,-0.6151,-0.6136,-0.6186,-0.6196,-0.6198,-0.6227,-0.6209,-0.6227,-0.6222,-0.6205,-0.6207,-0.6254,-0.6257,-0.6226,-0.6311,-0.6274,-0.6281,-0.6307,-0.6319,-0.6327,-0.6326,-0.6185,0,0,0,0,0,-0.6168,-0.6193,-0.6191,-0.6236,-0.6241,-0.6233,-0.6246,-0.6235,-0.6245,-0.6249,-0.6251,-0.6263,-0.6286,-0.6302,-0.6324,-0.6381,-0.6383,-0.6408,-0.6417,-0.6425,-0.6432,-0.6463,-0.6475,-0.635,-0.635,-0.6349,0,0,-0.6202,-0.6205,-0.6222,-0.6245,-0.6252,-0.6279,-0.6237,-0.6267,-0.6288,-0.6254,-0.6295,-0.6297,-0.6309,-0.636,-0.6382,-0.6364,-0.6467,-0.6432,-0.6437,-0.644,-0.647,-0.6482,-0.6493,-0.6353,-0.6352,-0.6352,0,0,-0.6278,-0.6282,-0.632,-0.6328,-0.6338,-0.6332,-0.6342,-0.6347,-0.6346,-0.6387,-0.6363,-0.6388,-0.6428,-0.6438,-0.6449,-0.653,-0.6511,-0.6537,-0.6585,-0.6616,-0.6626,-0.6635,-0.6665,-0.6676,-0.6544,-0.6544,-0.6544,0,-0.632,-0.6359,-0.6342,-0.6375,-0.6387,-0.6357,-0.6396,-0.6404,-0.6421,-0.6431,-0.6409,-0.6461,-0.6467,-0.652,-0.654,-0.6549,-0.656,-0.6537,-0.6626,-0.6634,-0.6642,-0.6671,-0.6683,-0.6547,-0.6547,-0.6546,-0.6546,0,-0.641,-0.6438,-0.6467,-0.6484,-0.6499,-0.6535,-0.6525,-0.6543,-0.653,-0.6527,-0.657,-0.6576,-0.6599,-0.6611,-0.6599,-0.6663,-0.6651,-0.6628,-0.6591,-0.6658,-0.6685,-0.6696,-0.6552,-0.6551,-0.655,-0.6549,0,0,-0.6517,-0.6525,-0.6536,-0.6544,-0.6554,-0.6575,-0.661,-0.6632,-0.6648,-0.6661,-0.6691,-0.6727,-0.6706,-0.6718,-0.6707,-0.6734,-0.68,-0.6708,-0.6708,-0.6726,-0.6873,-0.6892,-0.6905,-0.6787,-0.6789,-0.6791,-0.6873,0,-0.6594,-0.6653,-0.664,-0.6699,-0.6725,-0.6698,-0.6728,-0.6738,-0.6737,-0.676,-0.6758,-0.6785,-0.6754,-0.6761,-0.6787,-0.6787,-0.683,-0.6781,-0.6817,-0.6818,-0.6816,-0.6919,-0.6938,-0.7015,-0.6883,-0.6885,-0.6886,0,-0.6691,-0.6707,-0.6769,-0.6776,-0.6786,-0.6814,-0.6834,-0.6856,-0.6867,-0.6864,-0.6878,-0.6862,-0.6898,-0.686,-0.691,-0.6877,-0.6891,-0.6893,-0.6896,-0.69,-0.6857,-0.6927,-0.7039,-0.7051,-0.6902,-0.6901,-0.69,0,-0.6765,-0.6802,-0.6845,-0.6852,-0.686,-0.6881,-0.6885,-0.6894,-0.6909,-0.6926,-0.6936,-0.6958,-0.697,-0.6988,-0.6979,-0.6952,-0.7032,-0.6992,-0.7032,-0.7033,-0.7051,-0.705,-0.7169,-0.7058,-0.7058,-0.7058,-0.7057,0,-0.6852,-0.6891,-0.6878,-0.6904,-0.6948,-0.6933,-0.6977,-0.6978,-0.6986,-0.7013,-0.6991,-0.7017,-0.7003,-0.7028,-0.7021,-0.7065,-0.7071,-0.707,-0.7068,-0.7073,-0.7074,-0.7083,-0.7078,-0.7061,-0.706,-0.7059,-0.7059,0,-0.6942,-0.6935,-0.6979,-0.6983,-0.6985,-0.7018,-0.7022,-0.7047,-0.7044,-0.7078,-0.7085,-0.7081,-0.711,-0.7102,-0.7134,-0.7129,-0.7185,-0.7175,-0.7181,-0.7179,-0.722,-0.7217,-0.735,-0.7367,-0.7244,-0.7245,-0.7246,0,-0.6999,-0.7029,-0.7037,-0.7053,-0.7059,-0.7085,-0.71,-0.7086,-0.7103,-0.7119,-0.7143,-0.7169,-0.719,-0.7237,-0.7237,-0.7262,-0.7254,-0.7298,-0.7257,-0.7262,-0.7256,-0.7255,-0.7259,-0.7307,-0.7309,-0.731,-0.7311,0,-0.7102,-0.7097,-0.7119,-0.714,-0.7158,-0.7174,-0.7188,-0.7203,-0.7191,-0.7211,-0.724,-0.7256,-0.7288,-0.7316,-0.7338,-0.7344,-0.7326,-0.7323,-0.7334,-0.734,-0.7343,-0.7344,-0.7205,-0.7321,-0.732,-0.7319,-0.7318,-0.7318,-0.7178,-0.7204,-0.7214,-0.7239,-0.7248,-0.7262,-0.7287,-0.7287,-0.731,-0.7335,-0.7326,-0.736,-0.7371,-0.74,-0.7408,-0.7435,-0.7419,-0.7434,-0.7438,-0.7442,-0.7448,-0.7338,-0.7439,-0.7439,-0.7439,-0.7438,-0.7438,0,-0.7281,-0.7286,-0.731,-0.733,-0.7351,-0.7331,-0.7346,-0.7365,-0.7395,-0.7407,-0.7428,-0.7462,-0.7489,-0.7491,-0.7517,-0.7538,-0.7531,-0.7546,-0.7545,-0.7547,-0.7461,-0.745,-0.7551,-0.7551,-0.7551,-0.7551,-0.7551,-0.7551,-0.7337,-0.738,-0.7376,-0.7424,-0.7429,-0.7461,-0.7472,-0.7485,-0.7495,-0.7534,-0.7556,-0.7557,-0.7566,-0.7592,-0.7617,-0.7617,-0.7628,-0.7646,-0.7644,-0.7564,-0.7552,-0.7542,-0.7531,-0.7648,-0.7648,-0.7727,-0.7728,-0.7729]}]]